Location: *
(55.6049°S, 142.1985°W)
Time: 02:15:32
(UTC+00:00)

SKYMED 2 - Pass Details

Date: 12 May 2021
Orbit: 621 x 624 km, 97.9° (Epoch: 22 June)

Event Time Altitude Azimuth Distance (km) Brightness Sun altitude
Rises 16:15:10 0° 167° (SSE) 2,953 7.0 -8.2°
Reaches altitude 10° 16:17:24 10° 170° (S) 2,039 6.1 -7.9°
Maximum altitude 16:21:47 61° 249° (WSW) 724 3.6 -7.4°
Drops below altitude 10° 16:26:07 10° 329° (NNW) 2,016 6.1 -6.8°
Sets 16:28:19 0° 332° (NNW) 2,916 7.0 -6.5°
